Temp
-14 -14 -15 -15 -16 -16 -16 -16 -16 -16 -16 -15 -15 -15 -15 -15 -14 -14 -14 -14 -14 -13 -13 -14 -14 -14 -12 -11 -11 -10 -9 -10 -9 -10 -10 -10 -10 -10 -10 -10 -10 -10 -10 -10
-15 -15 -15 -15 -15 -15 -15 -16 -16 -15 -15 -15 -14 -15 -15 -15 -14 -13 -13 -13 -14 -13 -13 -14 -13 -13 -12 -10 -11 -10 -9 -10 -10 -10 -10 -10 -10 -11 -11 -11 -10 -10 -10 -10
-15 -15 -15 -15 -15 -15 -16 -15 -15 -16 -15 -15 -15 -14 -14 -15 -14 -14 -14 -14 -13 -14 -14 -14 -13 -12 -12 -11 -11 -10 -9 -10 -10 -10 -10 -10 -10 -11 -11 -11 -11 -11 -11 -11
-13 -14 -14 -15 -16 -16 -17 -16 -17 -16 -16 -15 -15 -15 -14 -14 -15 -15 -15 -14 -14 -14 -14 -13 -13 -13 -11 -11 -12 -10 -10 -10 -10 -10 -10 -11 -12 -12 -12 -12 -12 -12 -11 -11
-14 -14 -14 -14 -15 -16 -17 -17 -18 -18 -17 -17 -15 -15 -15 -14 -14 -15 -14 -14 -14 -14 -15 -14 -13 -12 -12 -12 -12 -11 -11 -10 -10 -11 -11 -11 -12 -12 -14 -15 -14 -13 -12 -13
-13 -14 -14 -15 -16 -16 -16 -18 -18 -18 -18 -17 -17 -16 -16 -15 -15 -14 -14 -14 -14 -15 -14 -14 -13 -12 -12 -11 -11 -11 -11 -11 -10 -11 -11 -12 -12 -12 -12 -13 -14 -14 -13 -13
-13 -14 -14 -15 -16 -17 -18 -19 -20 -19 -19 -18 -18 -17 -17 -16 -15 -15 -15 -15 -15 -15 -15 -14 -13 -13 -12 -12 -12 -12 -12 -11 -11 -12 -11 -12 -12 -12 -12 -12 -13 -14 -14 -14
-13 -14 -14 -14 -16 -18 -20 -21 -20 -19 -19 -19 -18 -19 -18 -17 -16 -15 -14 -15 -14 -14 -15 -14 -14 -13 -13 -13 -13 -13 -13 -12 -12 -12 -12 -11 -11 -11 -11 -11 -12 -13 -12 -13
-14 -14 -14 -15 -16 -19 -21 -21 -21 -20 -19 -19 -20 -19 -18 -18 -17 -16 -14 -15 -15 -15 -15 -15 -15 -15 -14 -13 -13 -13 -13 -13 -13 -12 -13 -12 -12 -12 -12 -13 -13 -13 -12 -12
-14 -14 -14 -14 -16 -19 -21 -22 -21 -20 -20 -20 -20 -20 -19 -19 -18 -17 -16 -15 -15 -15 -15 -15 -15 -15 -15 -14 -14 -14 -13 -13 -13 -13 -13 -13 -13 -13 -13 -12 -12 -14 -13 -13
-14 -14 -14 -14 -15 -17 -20 -21 -21 -21 -20 -20 -19 -20 -19 -19 -19 -18 -17 -17 -16 -15 -14 -15 -15 -15 -15 -15 -15 -15 -14 -14 -14 -14 -14 -14 -14 -13 -14 -13 -13 -13 -13 -13
-14 -14 -14 -14 -15 -16 -19 -21 -21 -21 -20 -20 -20 -20 -20 -20 -19 -19 -18 -17 -17 -16 -16 -15 -15 -15 -15 -15 -15 -15 -15 -15 -15 -14 -14 -15 -15 -14 -14 -15 -14 -14 -14 -14
-13 -14 -14 -14 -15 -16 -17 -19 -20 -21 -20 -20 -20 -20 -20 -20 -20 -20 -19 -18 -17 -17 -17 -16 -16 -15 -16 -16 -15 -15 -15 -15 -14 -14 -15 -15 -15 -15 -15 -15 -15 -15 -15 -15
-13 -14 -14 -15 -15 -16 -16 -18 -20 -20 -20 -20 -20 -20 -20 -21 -21 -20 -20 -20 -19 -18 -18 -18 -17 -17 -17 -16 -16 -15 -15 -15 -15 -15 -15 -15 -15 -15 -15 -15 -15 -15 -15 -15
-13 -14 -14 -15 -15 -15 -16 -17 -19 -20 -20 -20 -20 -21 -20 -20 -21 -21 -21 -20 -20 -19 -18 -18 -18 -18 -17 -17 -16 -17 -16 -16 -15 -15 -15 -15 -15 -15 -15 -15 -15 -16 -15 -15
-13 -13 -14 -14 -14 -15 -16 -16 -18 -19 -20 -20 -20 -20 -20 -20 -20 -20 -21 -21 -20 -20 -20 -19 -18 -19 -18 -18 -18 -17 -17 -17 -16 -16 -16 -16 -16 -16 -16 -16 -16 -16 -16 -16
-13 -13 -13 -14 -14 -15 -16 -16 -17 -17 -18 -19 -20 -20 -21 -20 -20 -20 -20 -20 -20 -20 -20 -20 -20 -19 -19 -19 -18 -18 -17 -17 -17 -17 -17 -17 -17 -16 -17 -16 -16 -16 -16 -16
-13 -13 -13 -14 -14 -14 -15 -16 -16 -17 -17 -17 -18 -20 -20 -21 -21 -21 -21 -20 -21 -21 -21 -21 -20 -20 -20 -20 -19 -19 -18 -18 -17 -17 -17 -17 -17 -17 -17 -17 -17 -17 -16 -17
-13 -13 -13 -14 -14 -14 -15 -15 -16 -16 -17 -17 -17 -18 -19 -20 -21 -21 -22 -21 -21 -21 -21 -21 -21 -21 -21 -21 -20 -20 -19 -19 -19 -19 -18 -18 -18 -18 -17 -17 -17 -17 -18 -18
-13 -13 -13 -13 -14 -14 -14 -15 -16 -16 -16 -16 -17 -17 -18 -19 -20 -22 -22 -22 -22 -21 -21 -21 -21 -21 -21 -21 -21 -20 -20 -20 -20 -19 -19 -19 -19 -19 -18 -18 -18 -19 -18 -19
-13 -13 -13 -13 -14 -14 -14 -15 -16 -15 -16 -16 -16 -16 -17 -18 -20 -21 -22 -22 -22 -22 -22 -22 -21 -21 -21 -21 -21 -21 -21 -20 -20 -20 -20 -20 -20 -20 -19 -19 -19 -19 -19 -19
-13 -13 -13 -13 -13 -14 -14 -14 -15 -16 -16 -17 -16 -17 -17 -17 -17 -18 -21 -22 -22 -22 -22 -22 -22 -21 -21 -21 -21 -21 -21 -20 -20 -20 -20 -20 -20 -20 -20 -20 -20 -20 -20 -20
-13 -13 -13 -13 -13 -13 -14 -14 -14 -15 -16 -16 -16 -16 -16 -17 -17 -17 -17 -19 -21 -22 -22 -22 -22 -22 -21 -21 -21 -21 -20 -20 -20 -20 -20 -20 -20 -20 -20 -20 -20 -20 -20 -20
-13 -13 -13 -13 -13 -13 -13 -14 -14 -14 -15 -15 -16 -17 -16 -16 -16 -16 -17 -17 -19 -21 -22 -22 -22 -22 -21 -21 -21 -21 -21 -21 -21 -21 -21 -21 -21 -20 -20 -20 -21 -21 -20 -20
-13 -13 -13 -13 -13 -13 -13 -13 -14 -14 -15 -15 -16 -16 -17 -17 -17 -17 -17 -17 -17 -19 -20 -22 -22 -22 -22 -22 -22 -22 -21 -21 -21 -21 -21 -21 -21 -21 -21 -21 -21 -21 -21 -21
-13 -13 -13 -13 -13 -13 -13 -13 -14 -14 -15 -15 -15 -16 -16 -17 -17 -17 -17 -17 -17 -18 -19 -21 -22 -22 -22 -22 -22 -22 -22 -22 -22 -22 -21 -22 -22 -21 -21 -21 -21 -21 -21 -21
Height
5634 5633 5630 5630 5627 5626 5626 5624 5623 5624 5624 5624 5624 5624 5625 5630 5636 5643 5648 5657 5663 5669 5673 5678 5687 5695 5702 5714 5726 5729 5736 5733 5741 5751 5757 5767 5776 5780 5785 5790 5795 5801 5805 5809
5635 5632 5629 5627 5625 5625 5623 5623 5622 5621 5623 5624 5625 5625 5623 5627 5634 5642 5649 5656 5664 5665 5671 5677 5687 5691 5698 5712 5723 5726 5722 5727 5735 5743 5752 5759 5766 5772 5778 5784 5789 5794 5798 5802
5632 5631 5628 5625 5624 5622 5620 5619 5619 5619 5620 5621 5624 5626 5626 5624 5632 5638 5648 5655 5662 5666 5669 5673 5681 5689 5695 5705 5714 5718 5722 5725 5728 5733 5738 5746 5753 5760 5767 5774 5781 5786 5791 5795
5634 5630 5627 5623 5619 5617 5616 5616 5617 5617 5618 5619 5622 5626 5627 5629 5630 5636 5642 5652 5661 5663 5668 5673 5681 5685 5690 5700 5705 5711 5719 5720 5724 5728 5731 5737 5745 5754 5761 5767 5773 5778 5783 5787
5636 5632 5626 5621 5616 5612 5611 5609 5610 5612 5613 5617 5620 5626 5624 5627 5631 5634 5641 5648 5655 5661 5666 5671 5677 5681 5686 5696 5702 5709 5711 5716 5718 5721 5724 5729 5736 5745 5749 5756 5763 5770 5776 5779
5635 5631 5625 5618 5611 5605 5601 5601 5602 5604 5609 5614 5618 5623 5622 5626 5631 5634 5639 5645 5653 5659 5662 5668 5674 5681 5684 5690 5697 5701 5707 5709 5717 5717 5721 5726 5730 5737 5742 5746 5753 5760 5769 5771
5633 5627 5619 5612 5605 5599 5593 5594 5596 5602 5605 5610 5615 5618 5621 5625 5630 5637 5637 5641 5648 5654 5658 5664 5670 5676 5680 5686 5690 5694 5699 5704 5711 5715 5720 5724 5728 5732 5736 5740 5743 5749 5755 5760
5634 5627 5618 5609 5600 5593 5588 5590 5594 5600 5604 5607 5610 5612 5617 5623 5628 5634 5639 5642 5645 5651 5656 5660 5665 5670 5676 5682 5686 5688 5693 5699 5704 5710 5715 5722 5726 5728 5730 5736 5741 5745 5748 5752
5634 5627 5619 5607 5597 5588 5584 5586 5591 5595 5601 5604 5608 5610 5615 5620 5625 5629 5633 5638 5644 5650 5652 5658 5662 5668 5671 5676 5682 5686 5690 5696 5701 5705 5711 5717 5720 5724 5731 5734 5738 5740 5745 5747
5634 5630 5621 5611 5597 5587 5584 5586 5591 5595 5601 5605 5607 5609 5613 5616 5620 5625 5630 5636 5639 5645 5649 5653 5659 5664 5667 5672 5678 5682 5686 5692 5698 5704 5707 5713 5716 5718 5723 5724 5728 5729 5742 5745
5638 5633 5626 5616 5602 5590 5586 5588 5592 5596 5601 5605 5606 5609 5610 5613 5617 5622 5626 5630 5634 5638 5644 5648 5651 5655 5662 5667 5672 5678 5681 5685 5691 5697 5700 5704 5708 5713 5716 5719 5722 5728 5733 5736
5640 5635 5629 5621 5609 5598 5590 5589 5594 5599 5602 5603 5607 5608 5610 5612 5615 5620 5623 5628 5631 5635 5639 5644 5648 5653 5658 5663 5667 5672 5676 5681 5688 5692 5694 5700 5703 5707 5712 5714 5717 5720 5724 5727
5642 5637 5633 5626 5618 5607 5599 5594 5596 5602 5604 5605 5608 5611 5612 5613 5614 5617 5621 5625 5629 5633 5637 5641 5645 5648 5653 5658 5661 5664 5669 5675 5680 5684 5686 5690 5694 5699 5702 5706 5708 5712 5715 5719
5644 5640 5635 5630 5622 5614 5606 5602 5602 5605 5608 5608 5608 5610 5610 5612 5614 5616 5618 5622 5625 5629 5632 5635 5639 5645 5649 5651 5654 5658 5661 5665 5670 5674 5678 5682 5686 5690 5693 5696 5699 5701 5705 5708
5646 5643 5638 5633 5627 5619 5614 5609 5606 5605 5607 5610 5609 5608 5610 5612 5614 5615 5616 5618 5620 5624 5627 5629 5634 5637 5640 5643 5647 5650 5654 5658 5662 5665 5669 5674 5677 5681 5684 5687 5690 5693 5696 5699
5648 5645 5642 5638 5632 5626 5620 5614 5609 5607 5608 5608 5607 5608 5608 5609 5611 5614 5614 5615 5617 5620 5623 5626 5628 5630 5634 5639 5642 5645 5648 5651 5653 5656 5658 5664 5667 5669 5673 5677 5679 5683 5686 5689
5650 5647 5644 5641 5637 5632 5627 5621 5616 5612 5608 5607 5606 5606 5604 5605 5607 5609 5611 5612 5614 5615 5617 5620 5622 5625 5629 5631 5635 5638 5640 5641 5644 5647 5651 5654 5656 5659 5664 5666 5669 5674 5675 5678
5652 5649 5646 5643 5641 5636 5631 5626 5621 5617 5613 5611 5606 5603 5600 5598 5600 5601 5603 5606 5609 5609 5612 5613 5615 5618 5621 5624 5627 5631 5632 5632 5635 5638 5641 5644 5647 5651 5655 5658 5660 5662 5664 5666
5652 5651 5648 5646 5642 5640 5634 5631 5627 5621 5617 5614 5608 5602 5598 5594 5594 5595 5595 5597 5600 5604 5606 5608 5610 5612 5614 5616 5618 5619 5622 5625 5629 5633 5634 5637 5640 5642 5645 5647 5649 5651 5652 5655
5653 5652 5650 5647 5644 5640 5636 5633 5629 5625 5620 5615 5608 5603 5597 5593 5589 5589 5589 5590 5592 5594 5597 5601 5605 5607 5607 5609 5610 5613 5613 5615 5618 5621 5625 5628 5629 5633 5634 5636 5637 5639 5640 5643
5653 5652 5650 5647 5644 5641 5636 5633 5630 5626 5625 5617 5611 5605 5598 5593 5589 5585 5583 5584 5584 5586 5589 5592 5595 5598 5600 5603 5605 5606 5608 5610 5611 5613 5616 5619 5620 5622 5623 5625 5627 5628 5629 5632
5653 5651 5649 5647 5644 5642 5638 5634 5630 5627 5622 5618 5612 5607 5602 5597 5591 5584 5579 5579 5579 5580 5581 5583 5587 5590 5593 5595 5597 5598 5599 5601 5602 5605 5607 5608 5610 5611 5612 5613 5614 5617 5618 5620
5653 5651 5649 5647 5644 5640 5637 5634 5630 5626 5621 5616 5611 5607 5602 5597 5593 5587 5581 5576 5574 5575 5576 5577 5578 5580 5583 5585 5587 5589 5591 5592 5593 5594 5594 5596 5597 5598 5600 5601 5603 5604 5606 5608
5650 5649 5647 5645 5643 5640 5637 5634 5630 5626 5621 5616 5612 5607 5602 5598 5594 5589 5583 5578 5572 5571 5571 5572 5572 5572 5573 5575 5577 5579 5580 5581 5582 5583 5584 5584 5584 5587 5589 5590 5591 5592 5594 5596
5648 5647 5646 5644 5641 5639 5636 5633 5629 5626 5621 5616 5611 5606 5602 5598 5594 5589 5585 5579 5572 5569 5568 5567 5567 5568 5567 5567 5567 5567 5569 5571 5573 5573 5573 5572 5573 5575 5576 5576 5578 5581 5582 5584
5645 5644 5643 5641 5639 5637 5634 5631 5627 5624 5619 5614 5610 5606 5602 5597 5591 5587 5583 5578 5573 5569 5566 5564 5563 5563 5562 5562 5561 5561 5560 5560 5560 5560 5561 5562 5562 5563 5563 5564 5565 5566 5569 5571
Wind_Speed
5 4 7 1 4 5 5 10 10 2 7 8 14 4 10 19 22 33 30 39 40 41 28 40 54 57 67 66 67 56 54 48 60 61 57 60 57 54 52 52 48 46 44 44
7 7 7 6 6 11 14 13 14 11 4 7 9 11 11 10 19 31 38 41 39 51 26 30 43 49 67 65 59 53 37 40 49 69 66 55 56 55 52 50 48 48 47 48
11 10 12 15 16 17 20 19 16 17 15 13 8 9 7 15 19 28 39 36 37 39 42 29 26 43 62 64 58 41 43 43 41 69 69 69 61 57 58 55 52 51 50 50
14 15 15 15 18 21 23 26 22 21 19 17 14 9 1 15 11 19 31 37 35 35 35 33 30 22 45 68 63 46 30 41 42 52 71 68 62 60 59 57 56 53 54 54
15 19 18 18 23 24 22 25 26 22 17 14 14 5 7 5 13 12 27 36 32 34 33 33 31 19 34 50 55 43 37 41 40 47 47 52 56 57 64 60 57 54 56 57
23 24 23 23 23 24 28 21 23 24 18 16 10 7 7 5 14 14 16 28 33 33 31 34 35 33 34 35 45 36 40 50 48 48 49 42 53 49 46 64 62 57 56 53
27 28 29 30 25 22 25 14 9 7 14 17 12 10 15 7 14 15 18 23 31 33 35 29 35 38 39 25 28 30 39 40 61 32 44 42 42 50 52 58 60 54 58 50
31 34 36 42 33 19 16 2 10 1 6 6 17 12 17 15 14 21 21 22 29 32 31 29 30 24 25 25 20 22 18 24 33 40 41 47 48 50 40 54 55 60 54 55
33 34 40 45 40 28 8 11 15 11 15 15 6 20 16 13 17 21 27 23 25 25 30 29 26 29 26 27 21 15 18 14 23 19 19 35 26 35 28 36 51 51 50 42
31 38 42 45 47 36 9 8 13 14 11 3 8 12 17 13 17 20 25 27 26 29 28 27 21 25 24 29 26 24 20 20 21 22 25 24 22 27 19 20 24 37 39 33
27 37 41 45 53 41 13 12 12 9 14 10 9 7 17 17 16 17 21 22 26 29 30 29 28 27 25 24 23 24 29 28 25 23 24 21 24 28 27 27 24 19 27 26
27 34 39 44 49 47 31 6 14 10 13 11 16 5 4 14 18 16 20 22 24 28 33 35 35 35 34 32 29 27 25 27 30 32 31 28 28 29 29 30 28 29 30 31
26 33 38 43 46 47 39 17 18 15 13 14 5 4 9 5 11 16 19 22 25 27 30 31 35 35 31 29 29 34 38 33 29 31 34 34 34 35 36 33 32 32 33 32
25 30 35 39 43 47 44 31 9 14 8 7 6 8 6 5 8 13 17 17 20 26 28 28 29 29 30 29 31 29 25 36 37 35 35 36 33 37 37 37 35 33 31 32
23 28 32 37 41 43 47 39 20 5 18 13 14 18 15 10 10 13 14 20 17 24 29 30 30 30 31 31 32 31 30 28 38 42 40 45 41 43 43 42 41 41 41 41
22 26 30 33 38 41 40 42 35 20 2 11 21 20 21 17 14 19 19 16 18 24 22 30 34 35 35 35 36 37 34 33 35 32 30 30 34 36 36 37 38 40 38 39
20 24 28 31 35 37 38 37 38 35 27 15 14 20 25 23 24 21 18 20 21 20 23 28 27 31 36 34 37 37 37 35 37 38 36 35 36 35 37 37 37 40 40 42
17 20 24 27 30 34 35 36 35 34 35 34 19 12 21 23 23 22 24 24 19 25 23 22 25 27 28 32 36 36 36 38 39 40 40 40 38 39 39 40 40 39 41 40
14 17 20 24 27 30 31 34 34 35 35 34 34 31 21 19 23 23 21 22 25 24 26 29 28 25 25 27 30 33 35 37 39 40 40 41 43 44 45 45 45 44 43 43
12 14 17 20 23 27 30 30 31 33 32 34 35 37 35 23 18 16 24 21 22 24 27 27 31 31 31 29 27 29 30 32 35 37 39 40 41 41 43 43 43 43 45 45
10 12 14 17 20 23 28 30 29 32 32 30 31 32 37 37 26 15 19 23 22 21 24 31 32 31 33 32 32 31 31 33 34 35 35 37 38 38 39 40 41 41 40 41
7 10 12 15 18 19 25 27 28 29 29 27 29 27 27 30 32 30 17 19 24 25 23 23 28 30 31 31 32 33 34 35 37 38 38 37 38 37 38 39 39 39 39 39
5 8 10 12 15 19 22 25 27 27 26 26 30 25 24 25 28 28 29 16 16 23 27 22 22 22 27 30 34 36 39 41 42 44 45 42 39 38 39 38 38 38 38 39
5 7 9 11 13 15 19 22 25 28 27 29 27 26 25 23 23 22 23 24 13 12 20 25 24 25 27 27 27 31 28 27 33 36 41 43 43 41 41 42 43 40 40 41
6 7 9 10 12 14 17 21 25 26 28 28 28 27 23 21 20 18 18 19 18 12 12 19 25 25 26 28 30 31 31 32 30 30 33 36 38 41 43 44 45 45 43 41
10 9 8 11 12 14 16 20 23 25 27 29 30 29 28 25 24 19 15 13 13 13 15 15 22 26 26 23 24 25 26 29 30 32 32 32 32 33 34 40 46 44 44 42
Wind_Direction
345 345 325 330 231 232 210 276 297 342 12 10 9 358 220 214 203 210 207 218 223 218 206 216 215 219 220 220 220 233 217 211 205 209 218 221 220 220 222 223 224 228 231 234
321 305 294 291 274 251 268 270 265 278 326 319 336 343 287 243 218 219 207 211 209 217 207 192 217 226 218 216 214 200 196 212 222 220 217 215 218 220 222 226 228 231 233 235
13 337 308 290 280 267 263 265 262 272 285 291 299 305 240 239 225 222 207 207 198 212 228 231 203 224 226 210 209 207 211 222 223 215 213 217 215 217 221 222 225 228 230 234
22 355 336 317 294 282 270 267 265 263 269 268 274 297 347 220 219 212 214 214 219 224 225 226 222 228 224 226 228 210 214 207 211 226 218 212 215 219 220 222 224 226 229 232
21 4 350 322 307 297 280 269 259 259 261 271 256 296 295 218 217 218 210 216 216 223 232 224 228 204 233 239 241 224 223 201 204 211 207 208 211 214 217 220 222 225 230 233
22 14 358 340 324 306 290 278 260 249 245 248 258 204 240 194 187 206 216 212 215 222 220 224 221 222 208 200 214 222 218 215 215 209 209 211 212 211 214 221 220 225 227 238
23 17 7 355 343 321 299 301 240 241 246 228 229 220 185 192 192 201 205 208 210 211 223 225 220 228 227 231 216 206 206 215 207 226 213 221 221 214 221 225 220 219 226 230
28 20 16 11 358 345 316 184 162 226 187 213 213 225 210 208 188 186 201 208 213 212 220 226 222 232 216 226 236 231 205 219 223 225 219 229 230 223 237 235 235 234 236 236
27 24 23 16 6 5 343 187 189 203 154 165 197 220 225 211 208 192 199 213 221 218 227 229 230 235 221 222 235 248 209 199 207 206 216 217 242 234 236 243 247 250 250 257
23 28 28 23 16 13 16 164 182 196 188 179 244 243 219 207 199 208 209 210 214 214 220 228 225 233 241 246 240 245 252 241 223 235 225 233 242 213 245 256 249 250 250 255
24 26 28 31 32 18 32 164 157 160 156 136 193 233 238 224 208 203 219 219 215 210 219 228 228 230 230 230 239 248 244 242 245 248 238 249 245 258 262 247 248 242 251 260
25 30 30 32 38 35 27 101 167 129 165 158 108 136 235 248 238 211 208 211 213 215 215 221 228 231 235 237 238 242 232 234 241 249 252 245 246 245 248 243 242 247 251 250
23 25 25 32 39 44 38 41 160 135 157 201 179 76 302 287 242 244 222 216 214 216 220 222 222 228 229 234 236 242 235 236 230 234 242 241 243 242 246 246 244 242 239 242
25 28 30 34 38 42 46 44 150 183 163 186 210 160 34 233 246 241 237 230 221 219 223 229 228 224 222 224 226 232 236 228 233 238 244 245 245 245 246 245 244 246 248 247
29 31 30 31 38 40 43 44 56 130 216 218 226 224 258 262 252 250 241 227 220 222 222 226 232 235 235 234 233 229 232 231 230 235 242 244 246 241 240 243 242 243 248 246
32 31 30 31 35 38 43 42 41 51 30 250 251 258 265 271 274 268 260 254 242 234 223 226 229 229 231 233 237 232 226 228 234 235 233 228 239 236 239 241 244 245 247 249
36 30 29 31 32 35 39 42 43 42 38 12 268 256 265 264 274 277 277 264 255 251 250 240 228 230 233 235 234 238 237 233 236 240 236 236 234 237 242 244 247 247 249 250
41 31 28 27 30 32 38 38 39 38 39 33 21 315 275 271 271 263 264 257 256 250 249 250 246 238 237 239 241 240 241 242 242 242 244 246 243 241 243 246 247 249 252 255
38 33 26 25 25 28 32 38 35 35 35 29 26 22 3 311 274 264 267 262 252 248 241 241 247 248 251 247 245 244 243 246 243 245 246 249 248 247 248 247 248 249 251 254
35 32 24 21 22 20 23 31 28 34 35 29 24 21 12 9 331 275 262 257 260 252 246 243 240 245 246 246 249 251 252 253 252 250 251 253 253 255 256 257 258 258 260 261
30 28 23 19 20 16 18 19 24 25 32 35 34 28 15 5 358 326 277 263 269 263 259 248 244 242 242 246 251 253 255 258 258 257 257 257 257 257 258 259 259 258 258 260
25 22 17 16 17 15 18 15 14 19 27 34 33 30 25 17 8 359 322 276 264 267 268 262 251 250 247 248 249 252 257 261 261 257 255 254 256 256 257 257 257 258 258 257
359 10 5 7 12 13 14 14 11 11 18 23 28 32 31 24 24 13 10 345 276 263 261 264 263 259 254 253 256 257 261 260 257 255 256 258 259 259 258 257 256 259 260 260
332 350 353 355 1 7 11 10 8 9 10 15 19 26 29 32 35 32 21 20 1 298 264 257 260 261 258 258 255 255 260 257 253 254 256 256 255 255 254 253 253 253 256 256
300 316 331 343 346 355 4 6 4 6 8 9 12 17 22 28 35 33 35 28 21 355 298 265 258 259 265 266 268 267 262 260 257 258 260 257 257 256 256 254 253 252 254 253
283 290 311 320 330 343 356 359 358 3 3 3 5 10 14 19 23 27 26 27 21 2 339 305 263 259 264 269 271 270 271 268 267 265 266 266 259 259 260 259 251 249 251 249